Location: ???????
(42.0990°N, 44.2656°E)
Time: 06:56:14
(UTC+00:00)

Daily predictions for brighter satellites

Satellite Brightness Start Highest point End
(mag) Time Altitude Azimuth Time Altitude Azimuth Time Altitude Azimuth
Lacrosse 5 rocket 1.1 17:12:21 10° SSW 17:16:01 53° SE 17:19:33 10° NE
Cosmos 1758 3.5 17:13:01 10° N 17:16:55 52° E 17:20:46 10° SSE
Meteor 2-10 4.3 17:12:20 10° NNW 17:17:23 71° W 17:22:33 10° S
Cosmos 2285 Rocket 4.3 17:12:57 10° SSW 17:19:23 76° WNW 17:25:51 10° NNE
FALCON 9 DEB 3.8 17:17:00 10° SSW 17:19:43 28° SE 17:22:27 10° ENE
Cosmos 2360 Rocket 2.4 17:15:43 10° S 17:21:08 50° ESE 17:26:33 10° NE
SPOT 1/Viking Rocket 4.4 17:20:00 10° SE 17:24:37 35° ENE 17:29:15 10° N
SL-16 R/B 2.6 17:19:24 10° SSW 17:25:02 69° WNW 17:30:43 10° NNE
Cosmos 2322 Rocket 2.3 17:19:21 10° SSW 17:25:04 88° WNW 17:30:49 10° NNE
Terra 4.0 17:25:39 10° E 17:27:24 12° ENE 17:29:08 10° NE
KORONAS-FOTON 4.3 17:28:09 10° SSE 17:31:42 39° E 17:35:14 10° NNE
CZ-2C R/B 4.3 17:28:58 10° NNE 17:33:29 41° E 17:37:58 10° S
Cosmos 1726 2.8 17:31:11 10° NNW 17:34:44 54° W 17:38:17 10° S
FALCON 9 DEB 2.8 17:32:27 10° SW 17:35:29 60° SE 17:38:33 10° ENE
Cosmos 1674 3.0 17:32:44 10° SSE 17:36:16 44° E 17:39:49 10° NNE
Cosmos 1975 Rocket 3.2 17:34:25 10° S 17:38:40 57° E 17:43:00 10° NNE
OBJECT-B 3.5 17:37:44 10° SW 17:39:58 18° W 17:42:14 10° NW
Cosmos 1953 2.9 17:37:24 10° N 17:41:18 42° ENE 17:44:40 13° SSE
ASTRO E2 4.4 17:39:02 10° SSW 17:41:33 16° S 17:43:13 13° SE
ATLAS 2A CENTAUR R/B 4.2 17:28:31 10° SW 17:41:50 22° S 17:46:48 12° SE
Cosmos 1741 Rocket 4.1 17:36:41 10° NNW 17:41:57 73° ENE 17:46:58 11° SSE
FALCON 9 DEB 2.9 17:40:14 10° SW 17:43:16 53° SE 17:46:19 10° ENE
Meteor 1-16 Rocket 4.3 17:38:26 10° N 17:43:46 54° ENE 17:48:36 12° SSE
FALCON 9 DEB 2.7 17:42:54 10° SW 17:45:58 72° SE 17:49:04 10° NE
Lacrosse 5 3.0 17:42:08 10° WNW 17:46:43 35° SW 17:51:16 10° S
Ariane Rocket 3.8 17:42:56 10° S 17:47:53 51° W 17:52:52 10° NNW
Cosmos 2322 4.2 17:43:21 10° S 17:48:30 38° ESE 17:53:41 10° NE
Resurs 01 Rocket 1.7 17:45:08 10° S 17:49:32 77° WSW 17:53:57 10° NNW
COSMOS 2428 3.7 17:45:27 10° SSE 17:50:10 27° ESE 17:54:55 10° NE
Aureole 1 Rocket 4.4 17:44:35 10° NNW 17:50:46 64° ENE 17:57:37 14° SSE
Cosmos 2278 Rocket 4.3 17:49:14 10° NNE 17:52:11 14° NE 17:55:08 10° ENE
SPOT 3 Rocket 3.6 17:48:06 10° SSE 17:53:16 88° WSW 17:58:30 10° NNW
Cosmos 1844 Rocket 2.8 17:48:49 10° NNW 17:54:30 68° ENE 17:59:10 15° SE
Landsat 7 3.9 17:49:45 10° SSE 17:54:30 84° WSW 17:59:18 10° NNW
Cosmos 1340 3.5 17:58:07 18° SE 18:00:17 31° E 18:03:39 10° NNE
Cosmos 2123 Rocket 4.4 18:00:29 13° SSE 18:05:49 46° E 18:11:49 10° NNE
Cosmos 2061 Rocket 4.5 18:02:10 10° N 18:08:22 48° ENE 18:12:53 18° SE
Cosmos 2263 Rocket 4.4 18:04:41 10° NW 18:08:36 19° W 18:12:29 10° SW
MetOp-B 4.2 18:04:36 12° S 18:09:37 78° WSW 18:15:00 10° NNW
Cosmos 1110 Rocket 4.2 18:06:41 10° SSW 18:11:51 76° WNW 18:17:05 10° NNE
ATLAS 3B R/B 2.5 18:12:45 10° SSW 18:19:16 77° ESE 18:25:59 10° NE
Cosmos 2100 Rocket 4.1 18:14:10 10° N 18:20:32 82° W 18:26:04 14° S
JB-3 4.3 18:17:43 10° NNE 18:21:44 87° ESE 18:25:15 14° SSW
Cosmos 1544 Rocket 3.5 18:17:49 10° N 18:22:18 79° E 18:25:07 22° SSE
Cosmos 1908 3.5 18:19:06 10° NNW 18:22:56 65° W 18:25:37 18° S
Cosmos 1626 2.1 18:20:34 14° S 18:23:37 81° W 18:27:19 10° N
ARIANE 5 R/B 2.6 18:23:29 23° SSE 18:26:15 79° ENE 18:30:45 10° N
Cosmos 1455 Rocket 3.7 18:22:18 10° NNW 18:26:40 54° W 18:30:17 14° SSW
Cosmos 2333 4.3 18:21:51 10° SSW 18:27:37 85° WNW 18:33:23 10° NNE
Cosmos 2173 Rocket 4.3 18:27:16 10° NNW 18:33:38 70° W 18:39:00 15° S
Cosmos 1346 Rocket 3.9 18:36:08 25° ESE 18:36:46 26° E 18:40:09 10° NE
Cosmos 1461 4.0 18:33:15 10° NW 18:37:01 34° WSW 18:39:03 21° SSW
Cosmos 2016 Rocket 3.9 18:31:28 10° N 18:37:36 84° E 18:41:43 22° S
Meteor 2-5 Rocket 3.7 18:36:18 21° S 18:39:58 65° E 18:45:32 10° NNE
ATLAS CENTAUR R/B 1.5 18:35:40 10° NNW 18:40:04 89° NE 18:42:13 32° SSE
Cosmos 2219 Rocket 2.1 18:34:56 10° SSW 18:40:37 86° ESE 18:46:20 10° NNE
Cosmos 2333 Rocket 2.3 18:35:55 10° SSW 18:41:40 80° WNW 18:47:26 10° NNE
SL-8 R/B 3.8 18:37:37 10° WNW 18:42:20 60° SW 18:44:24 32° SSE
Cosmos 405 2.8 18:41:37 10° N 18:45:04 89° ENE 18:46:05 43° S
SL-4 R/B 2.0 18:41:48 10° SW 18:45:56 52° SE 18:49:46 10° ENE
ERS-1 Rocket 2.9 18:44:08 27° SSE 18:46:58 87° WSW 18:52:02 10° NNW
Geosat 4.0 18:44:27 29° SSE 18:47:04 83° ENE 18:52:07 10° NNW
USA 215 3.9 18:42:48 10° ENE 18:48:33 32° SE 18:50:57 25° SSE
Cosmos 1844 4.2 18:45:27 10° NW 18:50:50 51° WSW 18:54:09 23° S
Cosmos 1025 Rocket 4.2 18:47:06 10° SSW 18:51:15 41° WNW 18:55:24 10° N
Spot 2 Rocket 4.0 18:48:19 20° S 18:51:38 53° W 18:56:36 10° NNW
Cosmos 1725 Rocket 4.0 18:45:44 10° N 18:51:57 88° W 18:55:46 25° S
Cosmos 1536 Rocket 3.7 18:51:05 23° SSW 18:53:50 76° W 18:58:18 10° N
Lacrosse 5 rocket 3.8 18:52:25 10° W 18:55:18 21° NNW 18:58:08 10° NNE
SL-24 R/B 4.4 18:51:09 10° N 18:55:56 65° E 18:57:59 34° SSE
DNEPR-1 R/B 3.5 18:53:28 10° NW 18:57:42 75° WSW 18:59:17 39° SSE
CZ-4B DEB 4.1 18:57:44 62° ESE 18:58:02 68° ENE 19:01:11 10° N
Cosmos 2228 3.6 18:55:05 10° N 18:59:18 43° ENE 19:00:27 35° ESE
SL-16 R/B 4.2 19:00:14 12° E 19:00:14 12° E 19:01:50 10° ENE
SL-12 R/B (Aux Motor) 4.3 19:00:41 37° SW 19:01:37 73° SSE 19:07:07 10° ENE
Cosmos 2237 Rocket 2.8 19:00:13 32° SE 19:01:39 37° ESE 19:06:47 10° NE
BREEZE-M DEB (TANK) 3.0 19:00:14 10° W 19:02:42 44° NNW 19:07:39 10° ENE
Terra 1.8 19:02:26 35° S 19:04:26 84° WSW 19:09:14 10° NNW
Cosmos 2360 Rocket 4.3 19:00:43 10° WSW 19:05:23 26° NW 19:10:05 10° N
SPOT 5 3.5 19:09:02 26° SSW 19:11:39 51° W 19:16:25 10° NNW
Meteor 1-24 Rocket 3.6 19:09:16 27° SSW 19:12:19 82° W 19:17:50 10° N
Cosmos 1455 3.2 19:16:37 10° NNE 19:20:05 32° ENE 19:20:14 32° E
H-2A R/B 3.6 19:17:52 10° N 19:21:56 66° WNW 19:23:25 37° SW
Cosmos 1184 Rocket 4.4 19:24:17 24° ENE 19:24:17 24° ENE 19:26:10 10° NNE
Cosmos 1300 4.1 19:26:58 10° NNW 19:30:21 30° W 19:31:23 26° WSW
COSMOS 2428 3.7 19:28:41 10° SW 19:34:09 45° WNW 19:39:41 10° NNE
Cosmos 2278 Rocket 2.2 19:31:33 10° NNW 19:37:15 78° ENE 19:39:05 45° SE
NOSS 0 Rocket 3.9 19:34:04 24° SSW 19:38:00 84° WNW 19:44:17 10° NNE
Okean 1-7 Rocket 4.3 19:39:24 37° E 19:39:31 37° E 19:43:37 10° NNE
Cosmos 1867 3.7 19:41:32 10° NW 19:46:57 63° WSW 19:48:15 48° S
Cosmos 1726 Rocket 3.4 19:44:44 10° N 19:49:13 84° W 19:49:48 67° S
Cosmos 2058 Rocket 3.2 19:45:05 10° N 19:49:28 58° E 19:49:52 55° ESE
Cosmos 389 Rocket 3.2 19:47:25 10° NNW 19:50:30 43° W 19:50:30 43° W
Meteor 1-21 Rocket 4.3 19:49:41 47° SE 19:50:59 60° E 19:56:37 10° NNE
Cosmos 968 Rocket 4.4 19:47:26 10° NW 19:52:07 37° WSW 19:53:29 32° SW
Meteor 2-10 Rocket 4.3 19:55:23 10° NNW 20:00:06 41° W 20:01:28 34° SW
SJ 16-02 3.1 19:59:06 10° N 20:02:27 21° ENE 20:03:32 19° E
Spot 4 3.7 20:02:03 62° SE 20:02:47 77° ENE 20:07:35 10° N
Cosmos 1943 Rocket 3.7 19:58:31 10° N 20:03:07 26° NE 20:05:54 18° E
Cosmos 1606 Rocket 4.3 20:00:31 10° NNW 20:04:45 43° W 20:05:25 40° WSW
Cosmos 1891 Rocket 4.4 20:00:17 10° N 20:06:29 86° W 20:08:27 47° S
Cosmos 1892 Rocket 3.9 20:06:50 50° WSW 20:07:34 58° W 20:11:58 10° N
Cosmos 1513 Rocket 4.4 20:03:51 10° N 20:09:58 84° W 20:11:46 49° S
NOSS 3-1 (C) 3.5 20:12:02 43° ESE 20:12:02 43° ESE 20:17:36 10° NE
ATLAS CENTAUR R/B 2.9 20:10:24 44° SSW 20:12:09 82° SE 20:23:21 10° NE
Cosmos 1980 4.2 20:09:27 26° SW 20:12:35 55° WNW 20:18:11 10° NNE
Cosmos 1354 Rocket 4.0 20:08:23 10° NNW 20:13:42 70° WSW 20:14:38 57° SSW
ATLAS CENTAUR R/B 4.1 20:17:45 10° W 20:18:21 10° WSW 20:18:21 10° WSW
Meteor 1-4 Rocket 3.6 20:15:45 10° N 20:18:21 37° NE 20:18:21 37° NE
Cosmos 1441 Rocket 3.4 20:19:41 67° NW 20:19:41 67° NW 20:23:11 10° N
ALOS 2 2.6 20:20:30 64° E 20:20:43 65° ENE 20:25:04 10° N
NOSS 3-1 (A) 4.2 20:24:08 29° ESE 20:24:08 29° ESE 20:28:39 10° NE
SL-4 R/B 3.5 20:21:54 10° W 20:25:38 34° NNW 20:29:06 10° NE
Cosmos 1607 4.1 20:21:09 10° NW 20:27:27 62° WSW 20:28:47 50° SSW
USA 215 3.4 20:25:21 10° NE 20:31:53 74° NW 20:38:13 11° WSW
Cosmos 1703 3.9 20:33:24 49° WNW 20:33:24 49° WNW 20:37:10 10° N
Cosmos 1626 Rocket 3.4 20:35:13 87° WSW 20:35:15 88° W 20:39:43 10° N
Meteor 2-1 Rocket 4.5 20:33:24 10° NNW 20:38:48 55° W 20:39:51 47° SW
COBE Rocket 4.1 20:42:41 55° SW 20:43:11 58° W 20:48:04 10° NNW
SL-16 R/B 2.1 20:42:05 59° SSW 20:43:13 88° ESE 20:48:55 10° NNE
Cosmos 1602 Rocket 3.5 20:43:27 80° E 20:43:27 80° E 20:47:54 10° N
Cosmos 2237 Rocket 3.6 20:41:59 16° WSW 20:45:43 33° WNW 20:50:47 10° N
Cosmos 1758 Rocket 3.8 20:51:29 56° E 20:51:29 56° E 20:55:39 10° NNE
Cosmos 1455 4.5 20:53:00 10° NW 20:55:06 16° W 20:55:06 16° W
Cosmos-2242 3.6 20:52:22 10° N 20:56:39 49° ENE 20:56:44 49° E
Cosmos 2369 Rocket 3.4 20:51:47 10° N 20:57:04 36° ENE 20:59:54 23° ESE
Cosmos 1634 Rocket 4.1 20:50:50 10° N 20:57:09 68° E 20:58:53 48° SE
GEOS 3 Rocket 3.7 20:57:03 56° SW 20:57:25 57° WSW 21:02:41 10° NW
NOSS 2-3 (D) 3.5 21:03:44 74° NE 21:03:44 74° NE 21:08:00 10° NE
USA 267 3.4 20:59:36 21° ESE 21:04:10 72° NE 21:10:42 10° NW
Aureole 3 3.5 21:08:08 10° N 21:12:13 89° W 21:12:16 88° SSW
USA 32 4.1 21:07:03 10° NNW 21:12:14 62° W 21:12:52 57° SW
PSLV R/B 3.6 21:10:02 10° NNE 21:14:17 69° E 21:14:17 69° E
Cosmos 1763 Rocket 3.6 21:15:46 53° ESE 21:16:02 54° ESE 21:21:01 10° NNE
NOSS 2-3 (C) 3.7 21:19:58 62° WNW 21:20:13 63° NW 21:24:53 10° NNE
Cosmos 2278 Rocket 4.2 21:17:38 10° WNW 21:20:34 14° W 21:20:55 14° WSW
Cosmos 1812 Rocket 4.1 21:18:16 10° NNW 21:22:13 47° W 21:22:13 47° W
Exosat Rocket 4.1 21:21:13 48° SSE 21:22:37 59° ESE 21:27:58 10° NNE
Cosmos 2297 3.7 21:18:09 10° NNW 21:23:42 59° WSW 21:24:17 56° SW
Cosmos 2221 4.3 21:22:35 10° NNE 21:26:00 23° ENE 21:27:02 21° E
Thor Agena Rocket 3.7 21:23:03 10° N 21:28:14 63° WNW 21:29:11 53° WSW
Resurs 1-4 Rocket 3.8 21:31:52 10° NE 21:35:49 21° E 21:37:18 19° ESE
SJ 16-02 2.4 21:37:07 10° NW 21:40:30 34° W 21:40:30 34° W
USA 308 4.3 21:42:28 28° E 21:42:28 28° E 21:45:04 10° ENE
In-Cosmos 22 Rocket 4.1 21:41:53 58° SSW 21:42:58 77° W 21:48:28 10° N
Meteor 1-27 4.3 21:38:35 10° NNW 21:44:03 60° W 21:44:55 53° SW
Cosmos 1943 Rocket 2.4 21:41:48 10° NW 21:47:04 47° WSW 21:47:23 47° WSW
Cosmos 1825 Rocket 4.0 21:48:07 49° W 21:48:17 49° WNW 21:52:38 10° N
GP-B 4.3 21:44:29 10° NNW 21:48:23 30° W 21:48:34 30° W
Cosmos 2142 Rocket 4.5 21:45:32 10° NNW 21:51:36 67° W 21:53:09 50° SSW
Cosmos 540 Rocket 3.5 21:52:41 57° SSE 21:53:23 64° ESE 21:58:27 10° NNE
USA 229 DEB 3.9 21:51:22 33° WSW 21:54:19 61° NW 22:01:05 10° NNE
USA 229 3.9 21:51:30 33° WSW 21:54:25 61° NW 22:01:11 10° NNE
Cosmos 1892 3.6 21:55:20 39° WNW 21:55:20 39° WNW 21:58:42 10° N
Cosmos 1943 3.1 21:54:58 57° SSW 21:56:09 84° ESE 22:01:51 10° NNE
Helios 1A 3.4 21:55:56 49° ESE 21:56:32 54° ENE 22:00:38 10° N
CZ-2D R/B 3.3 21:52:59 10° NE 21:57:33 30° E 21:59:03 26° SE
USA 305 3.4 21:59:02 49° ESE 21:59:02 49° ESE 22:02:35 10° ENE
X-37B 2.4 22:00:55 30° NE 22:00:55 30° NE 22:02:49 10° ENE
BREEZE-M DEB (TANK) 4.1 21:58:02 10° WNW 22:01:21 23° NNW 22:03:23 10° NE
Cosmos 1437 Rocket 2.8 21:58:09 10° N 22:01:53 68° ENE 22:01:53 68° ENE
Cosmos 990 Rocket 3.9 21:57:06 10° NNW 22:02:14 64° WSW 22:02:49 59° SW
Cosmos 1869 4.1 21:59:12 10° NNW 22:02:37 40° WNW 22:02:37 40° WNW
Cosmos 841 Rocket 3.5 22:04:02 57° SSE 22:04:56 70° ESE 22:10:04 10° NNE
SL-16 R/B 3.5 22:00:58 16° SE 22:05:35 42° ENE 22:11:20 10° N
Cosmos 1603 3.7 22:04:20 51° SW 22:05:48 79° WNW 22:11:30 10° NNE
Lacrosse 4 Rocket 3.5 22:03:32 10° N 22:06:53 24° NE 22:10:10 10° ESE
DELTA 2 R/B (1) 3.5 22:06:25 57° SSW 22:07:01 61° S 22:12:29 10° E
EO 1 Del DPAF 4.0 22:04:29 10° N 22:07:48 40° WNW 22:07:48 40° WNW
Cosmos 1953 Rocket 4.3 22:13:32 39° W 22:13:50 40° WNW 22:18:00 10° N
NOSS 3-1 (A) 4.1 22:11:32 27° W 22:14:10 45° NW 22:20:12 10° NNE
Cosmos 1937 Rocket 3.4 22:12:05 10° NNW 22:17:27 83° WSW 22:18:53 50° S
Cosmos 1898 Rocket 3.5 22:13:23 10° NNW 22:18:31 58° WSW 22:19:14 53° SW
Cosmos 1408 4.2 22:18:54 24° WNW 22:18:54 24° WNW 22:21:42 10° NNW
Cosmos 1825 2.8 22:19:42 43° WNW 22:19:42 43° WNW 22:23:06 10° N
ARGOS Delta rocket 4.5 22:14:18 10° NNE 22:19:45 59° E 22:21:33 39° SSE
USA 306 2.7 22:20:41 79° S 22:20:52 82° SE 22:25:08 10° NE
Cosmos 1242 Rocket 2.8 22:17:37 10° N 22:21:12 61° E 22:21:17 61° E
CZ-4 R/B 3.8 22:17:26 10° N 22:22:06 71° WNW 22:22:59 56° SW
Meteor 2-8 Rocket 4.4 22:18:32 10° N 22:24:43 86° E 22:27:20 37° S
Cosmos 1656 Rocket 3.6 22:19:53 10° NNW 22:25:35 73° WSW 22:27:23 44° S
SL-16 R/B 4.4 22:24:36 10° W 22:28:07 16° NW 22:31:39 10° N
Cosmos 921 Rocket 2.7 22:30:50 69° SW 22:31:18 83° WNW 22:35:30 10° NNE
Cosmos 405 Rocket 4.2 22:35:09 23° WNW 22:35:09 23° WNW 22:38:07 10° NNW
Cosmos 1842 Rocket 3.5 22:31:18 10° NNW 22:35:37 63° W 22:36:06 58° SW
Cosmos 1814 Rocket 3.9 22:34:39 48° SSW 22:36:09 88° ESE 22:41:20 10° NNE
Cosmos 2369 Rocket 2.9 22:35:55 10° NW 22:41:01 34° WSW 22:41:39 33° WSW
Cosmos 2151 3.4 22:40:23 40° SE 22:41:29 53° E 22:45:35 10° NNE
USA 267 3.8 22:46:54 32° SW 22:47:29 33° SW 22:53:17 10° WNW
ATLAS 5 CENTAUR R/B 1.2 22:47:38 59° SW 22:48:18 80° WNW 22:52:38 10° NE
Cosmos 1076 Rocket 3.4 22:47:53 54° SW 22:48:38 68° W 22:52:53 10° N
Cosmos 1570 Rocket 4.0 22:47:10 42° SW 22:48:54 73° WNW 22:54:08 10° NNE
Cosmos 372 Rocket 3.9 22:44:18 10° NNW 22:49:32 76° WSW 22:51:45 36° S
USA 290 2.3 22:49:57 67° NW 22:49:57 67° NW 22:53:01 10° NNE
Cosmos 1633 2.4 22:50:05 70° W 22:50:13 71° W 22:53:45 10° N
Cosmos 2292 Rocket 4.3 22:50:01 25° ESE 22:50:28 26° E 22:53:00 10° NNE
Cosmos 2058 4.1 22:50:55 27° W 22:51:22 28° WNW 22:54:54 10° NNW
NOSS 2-2 (D) 3.2 22:58:38 50° W 22:59:09 56° NW 23:02:44 10° NNE
Cosmos 1782 4.5 22:56:54 10° NNE 23:00:30 31° ENE 23:03:47 12° SE
MOZ.5/SAFIR/RUBIN 5/SL-8 4.4 23:00:35 35° WSW 23:01:22 38° W 23:05:49 10° NNW
Cosmos 2098 Rocket 4.2 22:59:51 30° WSW 23:01:24 37° W 23:05:36 10° NNW
Cosmos 2221 3.5 22:59:51 10° NNW 23:03:33 29° W 23:03:52 28° W
USA 307 3.5 23:03:09 29° W 23:05:02 51° NNW 23:09:12 10° NE
Cosmos 2208 Rocket 4.2 23:03:12 35° SW 23:05:27 65° WNW 23:10:54 10° NNE
Cosmos 1553 Rocket 4.4 23:01:06 10° N 23:07:20 61° E 23:13:03 12° SSE
Meteor 2-15 Rocket 4.4 23:03:29 10° NNW 23:09:36 72° W 23:13:09 26° S
SL-19 R/B 4.1 23:05:51 10° NNE 23:11:10 87° ESE 23:14:03 29° SSW
Cosmos 1606 3.6 23:10:04 10° NNW 23:13:28 31° W 23:13:39 31° W
Cosmos 2026 Rocket 4.1 23:10:41 30° SSW 23:13:56 68° W 23:20:17 10° N
Resurs 1-4 Rocket 2.5 23:10:46 10° N 23:15:55 51° WNW 23:18:23 29° SW
Meteor 1-29 3.0 23:12:32 10° NNE 23:15:56 69° ESE 23:16:53 43° S
Cosmos 1437 3.9 23:13:30 10° NNW 23:15:12 25° WNW 23:15:12 25° WNW
AQUA 3.8 23:13:50 10° N 23:18:35 72° WNW 23:20:46 32° SSW
Helios 1B rocket 2.8 23:16:52 10° N 23:20:50 51° WNW 23:22:14 34° SW
USA 308 3.9 23:18:33 20° W 23:21:06 41° NNW 23:25:09 10° NE
FALCON 9 DEB 2.9 23:18:33 10° WNW 23:21:56 68° SW 23:25:17 10° SE
Meteor 1-28 Rocket 3.9 23:19:58 15° SSE 23:22:54 54° ENE 23:26:38 10° N
ADEOS II 2.0 23:20:31 10° NNE 23:25:48 89° WNW 23:28:56 25° SSW
MINOTAUR 4 R/B 3.9 23:25:44 35° S 23:27:07 75° W 23:30:39 10° NNW
IRIDIUM 106 4.3 23:22:45 10° N 23:28:00 82° E 23:31:59 18° S
Cosmos 1933 3.4 23:26:48 10° NNW 23:30:51 61° W 23:32:42 30° SSW
NPP 4.1 23:27:20 10° N 23:32:30 47° WNW 23:35:26 24° SW
Cosmos 1328 Rocket 4.3 23:29:28 10° N 23:33:45 52° E 23:38:02 10° SSE
X-37B 0.5 23:33:22 10° WNW 23:36:34 85° NNE 23:39:44 10° ESE
CZ-2D R/B 3.0 23:32:56 10° N 23:37:35 34° WNW 23:40:23 20° WSW
USA 305 4.4 23:35:05 12° W 23:38:33 31° NNW 23:42:23 10° NE
IDEFIX/ARIANE 42P 2.9 23:33:22 10° NNE 23:38:35 64° ESE 23:42:44 16° S
USA 281 3.8 23:32:37 10° SE 23:39:02 61° ENE 23:45:30 10° NNW
Landsat 4 3.8 23:36:59 10° N 23:40:43 62° WNW 23:42:28 29° SW
Meteor 2-3 Rocket 4.0 23:41:21 23° SSW 23:44:45 55° WNW 23:50:13 10° N
FALCON 9 DEB 4.3 23:41:56 10° NW 23:44:56 41° NNE 23:47:55 10° ESE
Lacrosse 4 Rocket 2.1 23:41:56 10° NW 23:45:34 31° WSW 23:46:46 26° SW
SL-4 R/B 3.9 23:43:18 10° NW 23:46:26 27° NNE 23:49:26 10° E
SL-16 R/B 3.3 23:46:03 21° SW 23:49:14 32° W 23:54:43 10° NW
Cosmos 2266 Rocket 4.1 23:44:13 12° S 23:49:56 73° E 23:55:59 10° NNE
CBERS-1 4.0 23:47:05 10° NNE 23:52:15 83° WNW 23:56:13 17° SSW
DELTA 2 R/B (1) 3.5 23:47:46 10° W 23:53:15 65° S 23:58:45 10° ESE
IRS-1D 3.6 23:48:44 10° N 23:53:48 64° WNW 23:57:22 19° SSW
Cosmos 1151 Rocket 2.9 23:50:24 10° NNW 23:54:38 69° W 23:58:14 14° S
Cosmos 1862 3.7 23:51:44 14° S 23:55:06 64° E 23:59:08 10° NNE
Lacrosse 5 rocket 3.0 23:53:04 10° NNW 23:56:22 32° NE 23:59:44 10° ESE
